EW8848 Plant City FL US current weather conditions

sailwx.info

Wind from 321

Air temperature 13.3° C
Dewpoint 10.1° C

Last reported at 2019-Mar-22 06:05 UTC.
Time now 2019-Mar-22 06:38 UTC

Location: N 28°01' W 082°06'.
View on Google Maps.

See reports from other nearby stations

  
Tides and Currents Weather Stations Pressure Air Temp Water Temp Dewpoint Dewpoint Depression Visibility Wind Speed Wind Dir Waves Ship Positions
date/time (UTC)wind fromknots sea level pressurealtimeterstation pressurevisibilityair tempwater tempwave heightnotes
2019-Mar-22 06:05 321 13.3
2019-Mar-22 05:50 321 13.9
2019-Mar-22 05:35 321 13.9
2019-Mar-22 05:20 321 13.9
2019-Mar-22 05:05 321 14.4
2019-Mar-22 04:50 321 14.4
2019-Mar-22 04:35 321 14.4
2019-Mar-22 04:19 321 14.4
2019-Mar-22 04:04 321 15.0
2019-Mar-22 03:50 321 15.0
2019-Mar-22 03:34 321 15.6
2019-Mar-22 03:19 321 15.6
2019-Mar-22 03:04 321 15.6
2019-Mar-22 02:49 321 16.1
2019-Mar-22 02:34 321 16.1
2019-Mar-22 02:19 321 16.7
2019-Mar-22 02:04 321 16.7
2019-Mar-22 01:49 321 16.7
2019-Mar-22 01:34 321 17.2
2019-Mar-22 01:19 321 17.2
2019-Mar-22 01:04 321 17.8
2019-Mar-22 00:49 321 17.8
2019-Mar-22 00:34 321 17.8
2019-Mar-22 00:19 321 18.3
2019-Mar-22 00:04 321 18.3
2019-Mar-21 23:49 317 18.9
2019-Mar-21 23:34 313 19.4
2019-Mar-21 23:19 321 19.4
2019-Mar-21 23:04 20.0
2019-Mar-21 22:49 321 20.0
2019-Mar-21 22:34 326 20.6
2019-Mar-21 22:19 338 20.6
2019-Mar-21 22:04 324 20.6
2019-Mar-21 21:49 315 21.1
2019-Mar-21 21:34 344 21.1
2019-Mar-21 21:19 331 21.1
2019-Mar-21 21:04 336 21.1
2019-Mar-21 20:49 345 21.7
2019-Mar-21 20:34 299 21.7
2019-Mar-21 20:19 335 21.7
2019-Mar-21 20:04 323 21.7
2019-Mar-21 19:49 302 22.2
2019-Mar-21 19:34 322 22.2
2019-Mar-21 19:19 312 22.2
2019-Mar-21 19:04 338 22.2
2019-Mar-21 18:48 312 21.7
2019-Mar-21 18:33 306 22.2
2019-Mar-21 18:18 258 22.2
2019-Mar-21 18:03 325 21.7
2019-Mar-21 17:49 312 21.7
2019-Mar-21 17:33 308 21.1
2019-Mar-21 17:18 329 21.1
2019-Mar-21 17:03 350 20.6
2019-Mar-21 16:48 306 20.6
2019-Mar-21 16:33 322 20.0
2019-Mar-21 16:18 005 20.0
2019-Mar-21 16:03 19.4
2019-Mar-21 15:48 049 18.9
2019-Mar-21 15:33 055 18.9
2019-Mar-21 15:18 061 18.3
2019-Mar-21 15:03 042 17.2
2019-Mar-21 14:48 351 16.7
2019-Mar-21 14:33 005 16.7
2019-Mar-21 14:18 005 16.7
2019-Mar-21 14:03 005 15.6
2019-Mar-21 13:48 017 15.0
2019-Mar-21 13:33 018 15.0
2019-Mar-21 13:18 052 13.9
2019-Mar-21 13:03 052 13.9
2019-Mar-21 12:48 052 13.3
2019-Mar-21 12:33 052 13.3
2019-Mar-21 12:18 052 13.3
2019-Mar-21 12:03 052 13.3
2019-Mar-21 11:48 052 13.3
2019-Mar-21 11:33 052 13.3
2019-Mar-21 11:18 052 13.3
2019-Mar-21 11:03 052 13.3
2019-Mar-21 10:48 052 13.3
2019-Mar-21 10:32 052 13.9
2019-Mar-21 10:17 052 13.9
2019-Mar-21 10:02 052 13.9
2019-Mar-21 09:47 052 14.4
2019-Mar-21 09:32 052 14.4
2019-Mar-21 09:17 052 14.4
2019-Mar-21 09:02 052 14.4
2019-Mar-21 08:47 052 14.4
2019-Mar-21 08:32 052 15.0
2019-Mar-21 08:17 052 15.0
2019-Mar-21 08:02 052 15.0
2019-Mar-21 07:47 052 15.6
2019-Mar-21 07:32 052 15.6
2019-Mar-21 07:17 052 15.6
2019-Mar-21 07:02 052 15.6
2019-Mar-21 06:47 052 15.6
2019-Mar-21 06:32 052 15.6
2019-Mar-21 06:17 052 15.6
2019-Mar-21 06:02 052 16.1
2019-Mar-21 05:47 052 16.1
2019-Mar-21 05:45 052 16.1
2019-Mar-21 05:32 052 16.7
2019-Mar-21 05:17 052 16.7
2019-Mar-21 05:02 052 17.2
2019-Mar-21 04:47 052 17.8
2019-Mar-21 04:32 052 17.8
2019-Mar-21 04:17 052 18.3
2019-Mar-21 04:02 052 18.3
2019-Mar-21 03:47 052 18.3
2019-Mar-21 03:32 052 18.3
2019-Mar-21 03:17 052 18.9
2019-Mar-21 03:02 052 18.9
2019-Mar-21 02:46 052 18.9
2019-Mar-21 02:32 052 19.4
2019-Mar-21 02:16 052 19.4
2019-Mar-21 02:01 052 19.4
2019-Mar-21 01:46 052 20.0
2019-Mar-21 01:31 052 20.0
2019-Mar-21 01:16 052 20.0
2019-Mar-21 01:01 052 20.0
2019-Mar-21 00:46 052 20.6
2019-Mar-21 00:31 052 20.6
2019-Mar-21 00:16 052 20.6
2019-Mar-21 00:01 052 20.6
2019-Mar-20 23:46 052 21.1
2019-Mar-20 23:31 052 21.1
2019-Mar-20 23:16 052 21.1
2019-Mar-20 23:01 053 21.7
2019-Mar-20 22:46 055 21.7
2019-Mar-20 22:31 049 21.7
2019-Mar-20 22:30 049 21.7
2019-Mar-20 22:16 048 21.7
2019-Mar-20 22:01 058 22.2
2019-Mar-20 21:46 105 22.2
2019-Mar-20 21:31 051 22.2
2019-Mar-20 21:16 046 21.7
2019-Mar-20 21:01 066 21.7
2019-Mar-20 20:46 055 21.7
2019-Mar-20 20:31 116 21.7
2019-Mar-20 20:16 111 21.7
2019-Mar-20 20:01 049 21.7
2019-Mar-20 19:46 049 21.7
2019-Mar-20 19:31 074 21.7
2019-Mar-20 19:16 057 21.7
2019-Mar-20 19:01 067 0 gusting 7 21.7
2019-Mar-20 18:46 053 21.1
2019-Mar-20 18:31 064 0 gusting 6 21.1
2019-Mar-20 18:16 045 21.1
2019-Mar-20 18:02 075 21.1
2019-Mar-20 17:46 046 21.1
2019-Mar-20 17:31 067 21.1
2019-Mar-20 17:15 049 21.1
2019-Mar-20 17:00 053 21.1
2019-Mar-20 16:45 063 1 gusting 8 21.1
2019-Mar-20 16:30 042 20.6
2019-Mar-20 16:15 042 0 gusting 6 20.6
2019-Mar-20 16:00 059 0 gusting 8 20.6
2019-Mar-20 15:45 076 20.0
2019-Mar-20 15:30 098 20.6
2019-Mar-20 15:16 059 0 gusting 4 18.3
2019-Mar-20 15:00 095 17.8
2019-Mar-20 14:45 070 17.2
2019-Mar-20 14:30 058 16.7
2019-Mar-20 14:15 110 0 gusting 7 16.1
2019-Mar-20 14:00 053 15.6
2019-Mar-20 13:45 040 15.6
2019-Mar-20 13:30 040 15.6
2019-Mar-20 13:15 024 0 gusting 5 15.6
2019-Mar-20 13:00 053 15.0
2019-Mar-20 12:45 062 15.0
2019-Mar-20 12:30 054 0 gusting 5 15.0
2019-Mar-20 12:15 040 15.0
2019-Mar-20 12:00 054 14.4
2019-Mar-20 11:45 037 14.4
2019-Mar-20 11:30 049 14.4
2019-Mar-20 11:15 042 14.4
2019-Mar-20 11:00 053 14.4
2019-Mar-20 10:45 049 14.4
2019-Mar-20 10:30 067 14.4
2019-Mar-20 10:15 054 14.4
2019-Mar-20 10:00 040 14.4
2019-Mar-20 09:45 062 0 gusting 7 14.4
2019-Mar-20 09:30 054 0 gusting 4 13.9
2019-Mar-20 09:15 068 0 gusting 7 13.9
2019-Mar-20 09:00 053 1 gusting 9 13.9
2019-Mar-20 08:45 053 13.9
2019-Mar-20 08:30 027 0 gusting 7 13.9
2019-Mar-20 08:15 074 1 gusting 6 13.9
2019-Mar-20 08:00 043 2 gusting 8 13.3
2019-Mar-20 07:45 034 1 gusting 7 13.9
2019-Mar-20 07:30 042 1 gusting 8 13.9
2019-Mar-20 07:15 044 1 gusting 10 13.9
2019-Mar-20 07:00 034 0 gusting 8 13.3
2019-Mar-20 06:45 046 1 gusting 8 13.3
2019-Mar-20 06:30 082 3 gusting 8 13.3
2019-Mar-20 06:15 059 2 gusting 10 13.3
2019-Mar-20 06:00 038 2 gusting 9 13.3